Other Public Products
Issued by NWS Grand Forks, ND

Home | Current Version | Previous Version | Graphics & Text | Print | Product List | Glossary On
Versions: 1 2 3 4 5 6 7 8 9 10 11 12 13 14 15 16 17 18 19 20 21 22 23 24 25 26 27 28 29 30 31 32 33 34 35 36 37 38 39 40 41 42 43 44 45 46 47 48 49 50
000
FPUS83 KFGF 201731
OPUFGF
PRAIRIE TO PINES WEATHER ROUNDUP
NATIONAL WEATHER SERVICE EASTERN NORTH DAKOTA/GRAND FORKS ND
1200 PM CDT WED AUG 20 2014

 **SATELLITE DATA USED TO AUGMENT SKY COVER AT AUTOMATED STATIONS**
 *****  WEATHER ACROSS EASTERN NORTH DAKOTA  *****

CITY           SKY/WX    TMP DP  RH WIND       PRES   REMARKS
GRAND FORKS    PTSUNNY   80  66  62 S13       29.77S
GRAND FORKS AF MOSUNNY   79  69  72 S13       29.78S
GRAND CITY NWS   N/A     68 N/A N/A S7          N/A
BUXTON           N/A     80  72  75 SE10        N/A
DEVILS LAKE    MOSUNNY   81  64  57 S18G24    29.75R
FARGO          PTSUNNY   81  66  60 SE10      29.78F
WAHPETON ARPT  PTSUNNY   77  64  65 SE10      29.79F
$$

 *****  WEATHER ACROSS CENTRAL AND WESTERN NORTH DAKOTA  *****

CITY           SKY/WX    TMP DP  RH WIND       PRES   REMARKS
JAMESTOWN      PTSUNNY   77  66  68 SE13      29.76S
BISMARCK       CLOUDY    76  66  71 SE10      29.73R
MINOT          PTSUNNY   81  63  54 SW6       29.71R
MINOT AFB      PTSUNNY   77  67  71 E7        29.70S
GARRISON         N/A     74  66  76 SE10      29.72R
WILLISTON      CLOUDY    73  64  73 CALM      29.67R
DICKINSON      CLOUDY    74  62  66 W7        29.70R
HETTINGER      CLOUDY    74  65  73 E12       29.72S
$$

 *****  OTHER OBSERVATIONS NORTHEAST NORTH DAKOTA  *****

CITY           SKY/WX    TMP DP  RH WIND       PRES   REMARKS
WALHALLA         N/A     81  68  65 S14G21      N/A
LANGDON        FAIR      82  64  54 S17       29.78R
CAVALIER       FAIR      79  66  65 S12G17    29.77S
GRAFTON        FAIR      79  66  65 SE15      29.77S
CANDO          FAIR      81  66  61 S12G22    29.76S
FORT TOTTEN    NOT AVBL
ROLLA            N/A     79  68  69 S14       29.76F
RUGBY          NOT AVBL
 ***** THE ABOVE OBSERVATIONS ARE NON NWS ARE NOT QUALITY
        CONTROLLED AND MAY MIS-REPORT RAIN FOR SNOW...
$$

 *****  OTHER OBSERVATIONS SOUTHEAST NORTH DAKOTA *****

CITY           SKY/WX    TMP DP  RH WIND       PRES   REMARKS
COOPERSTOWN    NOT AVBL
VALLEY CITY    FAIR      79  66  65 SE14      29.78F
OAKES          NOT AVBL
GWINNER        SUNNY     79  68  69 SE12      29.79S
BUFFALO          N/A     79  62  55 SE9         N/A
WYNDMERE       NOT AVBL
 ***** THE ABOVE OBSERVATIONS ARE NON NWS ARE NOT QUALITY
       CONTROLLED AND MAY MIS-REPORT RAIN FOR SNOW...
$$

  *****  WEATHER ACROSS NORTHERN MINNESOTA  *****

CITY           SKY/WX    TMP DP  RH WIND       PRES   REMARKS
FLAG ISLAND    MOSUNNY   72  63  73 SE7       29.85S
WARROAD        MOSUNNY   75  66  73 E9        29.83F
ROSEAU         SUNNY     79  64  61 SE9       29.82F
HALLOCK        SUNNY     81  66  61 SE12      29.77S
THF RVR FALLS  SUNNY     79  64  61 SE10      29.81F
HALSTAD          N/A     80  64  59 SE13        N/A
FOSSTON        SUNNY     77  64  65 E6        29.83S
BAUDETTE       PTSUNNY   74  61  63 SE9       29.86S
WASKISH        CLOUDY    73  63  68 CALM      29.86S
CROOKSTON      SUNNY     81  64  57 S12       29.79F
$$
  *****  WEATHER ACROSS CENTRAL AND WEST MINNESOTA  *****

CITY           SKY/WX    TMP DP  RH WIND       PRES   REMARKS
BEMIDJI        MOSUNNY   73  62  70 SE8       29.85F
PARK RAPIDS    PTSUNNY   74  63  68 SE8       29.84F
WADENA         MOSUNNY   75  64  69 SE8       29.84F
DETROIT LAKES  MOSUNNY   77  64  65 SE10      29.84S
MOORHEAD       PTSUNNY   81  72  74 SE7       29.80S
FERGUS FALLS   PTSUNNY   79  63  57 SE9       29.80S
ELBOW LAKE     FAIR      79  65  63 SE10      29.82S
MORRIS MN      MOSUNNY   82  66  57 S13       29.81S
STAPLES        MOSUNNY   73  63  68 S7        29.85S
WHEATON        MOSUNNY   75  66  73 SE12      29.82S
$$
  *****  WEATHER ELSEWHERE ACROSS MINNESOTA  *****

CITY           SKY/WX    TMP DP  RH WIND       PRES   REMARKS
DULUTH         CLOUDY    67  59  75 S7        29.91R
INTRNTL FALLS  PTSUNNY   72  58  61 E7        29.87S
ELY            CLOUDY    66  59  77 CALM      29.90S
CLOQUET        CLOUDY    66  57  72 S3        29.91S
BRAINERD       PTSUNNY   71  62  73 VRB5      29.87F
HIBBING        CLOUDY    71  57  61 VRB3      29.90R
ALEXANDRIA     MOSUNNY   77  66  68 E9        29.85S
SAINT CLOUD    SUNNY     78  65  63 SE9       29.84F
MINNEAPOLIS    PTSUNNY   79  65  62 E8        29.84F
$$

  *****  WEATHER ACROSS SOUTH DAKOTA  *****

CITY           SKY/WX    TMP DP  RH WIND       PRES   REMARKS
SIOUX FALLS    PTSUNNY   75  67  76 S8        29.81R
BROOKINGS      NOT AVBL
WATERTOWN      PTSUNNY   77  65  66 SE12      29.81F
HURON          MOSUNNY   81  65  58 S18G26    29.74F
SISSETON         N/A     78  66  66 S17       29.78S
ABERDEEN       CLOUDY    80  67  64 SE13      29.75F
MITCHELL       SUNNY     80  68  66 S15       29.74F
PIERRE         CLOUDY    80  69  69 SE10      29.70S
MOBRIDGE       PTSUNNY   80  66  62 SE18G24   29.69F
RAPID CITY     PTSUNNY   79  63  57 SE6       29.75S
$$

  *****  SOME WEATHER IN NEARBY STATES *****

CITY           SKY/WX    TMP DP  RH WIND       PRES   REMARKS
GLASGOW MT     CLOUDY    68  60  75 NW15      29.73R
GREAT FALLS MT MOSUNNY   73  47  39 W7        29.84S
CHEYENNE WY    MOSUNNY   78  46  32 W23G35    30.01R
SCOTTSBLUFF NE SUNNY     83  55  38 W10       29.86R
OMAHA NE       CLOUDY    76  68  76 SE10      29.85S
DES MOINES IA  CLOUDY    72  67  84 S9        29.85F
DAVENPORT IA   CLOUDY    75  67  76 SW8       29.95R
CHICAGO IL     PTSUNNY   82  64  54 SW12      29.91R
EAU CLAIRE WI  PTSUNNY   71  61  70 SE5       29.90R
LA CROSSE WI   SUNNY     79  66  64 CALM      29.88F
$$

  *****  SOME NATIONAL WEATHER *****

CITY           SKY/WX    TMP DP  RH WIND       PRES   REMARKS
LA GUARDIA NY  PTSUNNY   81  58  45 S10G20    29.99F
RALEIGH NC     PTSUNNY   84  71  65 CALM      30.01F
ATLANTA GA     PTSUNNY   88  74  63 NW8       30.07F HX  96
NEW ORLEANS LA PTSUNNY   90  76  63 VRB5      30.08S HX 101
OKLAHOMA CITY  SUNNY     90  63  40 S18G28    29.93S HX  91
ALBUQUERQUE NM MOSUNNY   76  52  43 VRB7      30.12S
SALT LAKE CITY MOSUNNY   70  55  59 S15G22    30.01R
LOS ANGELES CA PTSUNNY   73  59  61 VRB5      29.95R
BOISE ID       PTSUNNY   74  48  39 CALM      29.88S
SEATTLE WA     PTSUNNY   64  50  59 SW12      29.98S
$$

*** WEATHER ACROSS MANITOBA...SASKATCHEWAN AND ONTARIO ***
                ***ONTARIO***

CITY           SKY/WX    TMP DP  RH WIND       PRES   REMARKS
GERALDTON      CLOUDY    64  59  82 NE8       29.91S FOG
THUNDER BAY    CLOUDY    66  61  82 SE5       29.90R
SIOUX LOOKOUT  MOSUNNY   73  61  64 CALM      29.90F
TORONTO        CLOUDY    72  64  78 SE8       29.90S
BIG TROUT LK   SUNNY     75  57  53 SE8       29.92F
PICKLE LAKE    MOSUNNY   77  54  44 E8        29.92R
DRYDEN         CLOUDY    70  61  73 NE5       29.90S
KENORA         PTSUNNY   72  61  68 SE8       29.88S
$$
                *** MANITOBA***

CITY           SKY/WX    TMP DP  RH WIND       PRES   REMARKS
BRANDON        CLOUDY    72  66  83 S9        29.76R
DAUPHIN        PTSUNNY   77  68  73 SE10      29.68R
ISLAND LAKE    MOSUNNY   79  63  57 SE3       29.83S
PILOT MOUND      N/A     81  63  54 S16G22      N/A
THE PAS        CLOUDY    79  66  65 SE12      29.62F SMOKE
THOMPSON       PTSUNNY   77  63  61 S7        29.71F
WINNIPEG       PTSUNNY   79  64  61 SE15G23   29.77S
LYNN LAKE      CLOUDY    57  57 100 MISG      29.73S
CHURCHILL      LGT RAIN  52  50  93 SE8       29.80F
GILLAM         PTSUNNY   81  63  54 S9        29.77F
$$
                ***SASKATCHEWAN***

CITY           SKY/WX    TMP DP  RH WIND       PRES   REMARKS
ESTEVAN        CLOUDY    70  63  78 SE9       29.69
KINDERSLEY     PTSUNNY   68  57  68 NW9       29.77R
LLOYDMINSTER   MOSUNNY   66  54  63 NW15G21   29.78R
PRINCE ALBERT  LGT RAIN  64  63  94 E7        29.67R
REGINA         CLOUDY    68  64  88 W5        29.67R
YORKTON        SUNNY     75  64  69 SE13      29.64F


USA.gov is the U.S. government's official web portal to all federal, state and local government web resources and services.